Location: Cape Cod Imaging Station
(41.7417°N, 70.1583°W)
Time: 14:04:52
(UTC-04:00)

Envisat - Visible Passes

Search period start: 23 June 2018 00:00
Search period end: 03 July 2018 00:00
Orbit: 764 x 766 km, 98.2° (Epoch: 23 June)

Date Brightness Start Highest point End Pass type
(mag) Time Alt. Az. Time Alt. Az. Time Alt. Az.
23 Jun 5.6 21:11:09 10° SW 21:14:28 17° W 21:17:49 10° NW visible
26 Jun 5.4 20:59:19 10° SW 21:03:12 22° W 21:07:07 10° NW visible
28 Jun 5.8 21:27:03 10° WSW 21:29:03 12° W 21:31:05 10° WNW visible
29 Jun 5.0 20:47:39 10° SSW 20:51:57 27° W 20:56:16 10° NW visible
01 Jul 5.6 21:14:44 10° SW 21:17:46 16° W 21:20:48 10° NW visible
